Location: Kellogg
(38.0159°N, 90.0546°W)
Time: 03:57:09
(UTC+00:00)

SR - Pass Details

Date: 17 September 2024
Orbit: 578 x 855 km, 66.7° (Epoch: 08 October)

Event Time Altitude Azimuth Distance (km) Brightness Sun altitude
Rises 03:44:49 0° 332° (NNW) 2,969 ? -39.9°
Reaches altitude 10° 03:47:02 10° 334° (NNW) 2,094 ? -40.2°
Enters shadow 03:47:20 12° 334° (NNW) 1,980 ? -40.3°
